Location: ASU Dark Sky Observatory
(36.2504°N, 81.4125°W)
Time: 14:57:01
(UTC-04:00)

Amateur Radio Satellites - All Passes

Search period start: 29 August 2015 14:27
Search period end: 30 August 2015 14:27
Location: ASU Dark Sky Observatory, 36.2504°N, 81.4125°W

Satellite Date Start Highest point End Downlink Frequencies (MHz)
Time Altitude Azimuth
SPROUT 29 Aug 14:32:28 14:36:04 25° 289° (WNW) 14:39:35 437.525
ITUPSAT 1 29 Aug 14:44:06 14:48:21 33° 97° (E) 14:52:39 437.325
ITAMSAT 1 29 Aug 14:45:01 14:49:57 48° 72° (ENE) 14:54:56 435.822/435.867
GONETS M04 29 Aug 14:47:57 14:56:35 59° 79° (ENE) 15:05:17
JAS-2 29 Aug 15:00:47 15:07:50 46° 70° (ENE) 15:15:17 435.910
RS-15 29 Aug 15:15:43 15:20:42 15° 101° (E) 15:26:42 29.354- 29.394
BEESAT 29 Aug 15:18:45 15:23:32 82° 103° (ESE) 15:28:17 436.000
BEESAT 3 29 Aug 15:23:46 15:26:44 20° 112° (ESE) 15:29:50 437.485
AO-7 29 Aug 15:25:00 15:32:13 35° 63° (ENE) 15:39:33 29.400- 29.500
BEESAT 2 29 Aug 15:31:54 15:34:43 19° 111° (ESE) 15:37:40 435.950
Oscar 19 29 Aug 15:34:21 15:37:03 14° 270° (W) 15:39:27 437.125/150
Cosmos 2499 29 Aug 15:37:13 15:44:37 31° 70° (ENE) 15:51:48 435.465 / 435.565
KKS-1 29 Aug 15:37:50 15:40:58 19° 93° (E) 15:44:14 437.445
SWISSCUBE 29 Aug 15:44:28 15:49:03 48° 287° (WNW) 15:53:36 437.505
HORYU 2 29 Aug 15:44:33 15:47:52 21° 69° (ENE) 15:51:18 437.375
Gurwin Techsat 1B 29 Aug 15:51:05 15:55:49 32° 264° (W) 16:00:31 435.225
JUGNU 29 Aug 15:53:22 15:56:34 15° 176° (S) 15:59:47 437.505
ITUPSAT 1 29 Aug 16:22:21 16:26:05 23° 291° (WNW) 16:29:42 437.325
ITAMSAT 1 29 Aug 16:26:16 16:29:46 17° 268° (W) 16:33:04 435.822/435.867
ISS 29 Aug 16:37:50 16:40:33 24° 32° (NNE) 16:43:17 145.825
GONETS M04 29 Aug 16:45:52 16:52:57 27° 275° (W) 16:59:43
JAS-2 29 Aug 16:46:12 16:52:58 35° 267° (W) 16:59:55 435.910
SRMSAT 29 Aug 16:58:32 17:01:17 13° 172° (S) 17:04:05 437.500
BEESAT 3 29 Aug 17:00:53 17:04:29 30° 307° (NW) 17:08:06 437.485
STARS 29 Aug 17:01:22 17:05:51 81° 284° (WNW) 17:10:16 437.465
MOZHAYETS 4 29 Aug 17:06:54 17:10:37 25° 94° (E) 17:14:24
BEESAT 2 29 Aug 17:08:48 17:12:33 33° 306° (NW) 17:16:17 435.950
KKS-1 29 Aug 17:13:37 17:17:42 34° 288° (WNW) 17:21:44 437.445
AO-7 29 Aug 17:16:44 17:24:47 50° 259° (W) 17:32:47 29.400- 29.500
HORYU 2 29 Aug 17:20:17 17:24:19 32° 263° (W) 17:28:20 437.375
RS-15 29 Aug 17:20:41 17:31:33 81° 117° (ESE) 17:42:52 29.354- 29.394
AIST 2 29 Aug 17:26:18 17:30:30 71° 118° (ESE) 17:34:45 435.215
Cosmos 2499 29 Aug 17:29:51 17:38:10 51° 270° (W) 17:45:50 435.465 / 435.565
JUGNU 29 Aug 17:41:50 17:44:49 14° 186° (S) 17:47:45 437.505
Cubesat XI-IV 29 Aug 17:45:05 17:48:20 17° 65° (ENE) 17:51:48 437.490
ISS 29 Aug 18:14:03 18:16:57 30° 228° (SW) 18:19:49 145.825
CUTE-I 29 Aug 18:28:52 18:33:52 44° 72° (ENE) 18:38:55 437.470
MOZHAYETS 4 29 Aug 18:43:57 18:47:48 26° 289° (WNW) 18:51:32
SRMSAT 29 Aug 18:46:19 18:49:42 16° 182° (S) 18:53:04 437.500
CUBESAT XI-V 29 Aug 18:53:11 18:57:12 29° 95° (E) 19:01:18 437.345
AIST 2 29 Aug 19:07:44 19:09:35 12° 316° (NW) 19:11:17 435.215
STRAND 1 29 Aug 19:19:57 19:22:29 14° 90° (E) 19:25:20 437.568
Cubesat XI-IV 29 Aug 19:22:48 19:28:01 56° 259° (W) 19:33:16 437.490
HO-68 29 Aug 19:25:43 19:29:07 15° 58° (ENE) 19:32:56 435.675
RS-15 29 Aug 19:35:57 19:45:25 30° 322° (NW) 19:54:58 29.354- 29.394
DOVE 4 29 Aug 19:41:38 19:42:20 10° 64° (ENE) 19:43:21 437.250
CANX-2 29 Aug 20:06:18 20:08:31 14° 68° (ENE) 20:10:56 2200.000
BRITE-PL 29 Aug 20:08:01 20:12:12 61° 75° (ENE) 20:16:42 437.365/2234.400
CUTE-I 29 Aug 20:10:15 20:14:11 20° 267° (W) 20:17:57 437.470
O/OREOS (USA 219) 29 Aug 20:24:11 20:28:41 68° 292° (WNW) 20:33:14 437.305
PRISM 29 Aug 20:25:15 20:29:13 48° 100° (E) 20:33:12 437.425
AIST 1 29 Aug 20:25:45 20:30:06 85° 87° (E) 20:34:27
CUBESAT XI-V 29 Aug 20:30:47 20:34:32 24° 290° (WNW) 20:38:09 437.345
SEEDS 29 Aug 20:31:28 20:34:28 19° 70° (ENE) 20:37:34 437.485
SRMSAT 29 Aug 20:36:17 20:38:05 11° 192° (SSW) 20:39:48 437.500
CINEMA 3 29 Aug 20:42:30 20:45:56 21° 68° (ENE) 20:49:37 145.822/145.860
GOMX 1 29 Aug 20:49:27 20:53:49 80° 257° (WSW) 20:58:31 467.674
CUBEBUG 2 29 Aug 20:51:43 20:53:11 12° 65° (ENE) 20:54:55 437.445
COMPASS 1 29 Aug 20:56:52 21:00:30 29° 72° (ENE) 21:04:10 437.405
STRAND 1 29 Aug 20:57:08 21:02:08 57° 287° (WNW) 21:07:07 437.568
Cosmos 2491 29 Aug 20:57:29 21:06:03 58° 78° (ENE) 21:14:41 435.465 / 435.565
UWE-3 29 Aug 21:03:44 21:05:22 12° 66° (ENE) 21:07:16 435.000/436.395/437.385
YUBILEINY 29 Aug 21:03:49 21:10:51 29° 85° (E) 21:18:12 435.215
HO-68 29 Aug 21:08:47 21:15:56 84° 76° (ENE) 21:23:10 435.675
AAUSAT CUBESAT 2 29 Aug 21:09:08 21:12:54 33° 73° (ENE) 21:16:42 437.432
DOVE 4 29 Aug 21:14:58 21:19:26 72° 259° (W) 21:24:13 437.250
CUTE 1.7 + AOD 2 29 Aug 21:26:09 21:30:27 74° 259° (W) 21:34:44 437.475
CANX-2 29 Aug 21:40:00 21:44:07 44° 262° (W) 21:48:13 2200.000
DELFI C3 29 Aug 21:50:57 21:54:21 27° 72° (ENE) 21:57:49 145.870
RS-15 29 Aug 21:57:50 22:03:20 14° 356° (N) 22:08:52 29.354- 29.394
Oscar 11 29 Aug 21:58:02 22:02:17 55° 75° (ENE) 22:06:33 145.826/435.025
PRISM 29 Aug 22:02:33 22:04:17 12° 293° (WNW) 22:05:48 437.425
SEEDS 29 Aug 22:06:16 22:10:03 30° 264° (W) 22:13:49 437.485
HUMSAT D 29 Aug 22:06:38 22:09:14 16° 68° (ENE) 22:12:00 437.325/437.525
CINEMA 3 29 Aug 22:18:43 22:22:55 34° 265° (W) 22:27:15 145.822/145.860
CUBEBUG 2 29 Aug 22:24:45 22:29:18 66° 260° (W) 22:34:01 437.445
VELOX 1 29 Aug 22:30:56 22:31:46 11° 65° (ENE) 22:32:53 145.980
COMPASS 1 29 Aug 22:33:02 22:36:11 20° 267° (W) 22:39:13 437.405
ZACube-1 29 Aug 22:35:24 22:39:54 87° 254° (WSW) 22:44:32 437.345
UWE-3 29 Aug 22:36:52 22:41:22 63° 260° (W) 22:45:59 435.000/436.395/437.385
FUNcube-1 29 Aug 22:41:57 22:46:26 76° 259° (WSW) 22:51:02 145.935
AAUSAT CUBESAT 2 29 Aug 22:45:48 22:48:36 17° 268° (W) 22:51:15 437.432
50 SAT 29 Aug 22:47:26 22:50:06 18° 70° (ENE) 22:52:53 437.505
ANTELSAT 29 Aug 22:54:31 22:56:58 15° 90° (E) 22:59:36 437.575/2403.000
Cosmos 2491 29 Aug 22:55:23 23:02:27 27° 275° (W) 23:09:14 435.465 / 435.565
YUBILEINY 29 Aug 22:58:44 23:07:17 54° 282° (WNW) 23:15:51 435.215
HO-68 29 Aug 23:00:38 23:04:38 15° 271° (W) 23:08:07 435.675
ESTCUBE 1 29 Aug 23:13:25 23:17:00 25° 70° (ENE) 23:20:40 437.505/2401.250
DX 1 29 Aug 23:22:04 23:26:22 71° 76° (ENE) 23:30:42 434.975-435.025
DELFI C3 29 Aug 23:26:24 23:29:25 19° 266° (W) 23:32:20 145.870
AISAT 29 Aug 23:34:34 23:38:54 61° 74° (ENE) 23:43:16 437.250
Oscar 11 29 Aug 23:37:35 23:38:52 11° 271° (W) 23:39:51 145.826/435.025
UKube-1 29 Aug 23:38:25 23:42:43 83° 257° (WSW) 23:47:03 .
HUMSAT D 29 Aug 23:40:37 23:44:39 39° 262° (W) 23:48:43 437.325/437.525
CUBEBUG 1 29 Aug 23:42:47 23:46:49 41° 73° (ENE) 23:50:54 437.445
UNISAT 6 29 Aug 23:43:54 23:48:24 55° 100° (E) 23:52:47 437.425
POLYITAN 1 29 Aug 23:45:12 23:48:10 19° 93° (E) 23:51:16 437.675
Cosmos 2504 29 Aug 23:46:19 23:53:41 44° 89° (E) 00:01:36 435.465 / 435.565
POPSAT HIP 1 29 Aug 23:48:39 23:51:45 20° 93° (E) 23:54:58 437.405
SPROUT 29 Aug 23:49:26 23:51:36 14° 68° (ENE) 23:53:58 437.525
DUCHIFAT 1 29 Aug 23:51:13 23:54:21 20° 94° (E) 23:57:36 145.980
VELOX 1 30 Aug 00:03:29 00:07:50 64° 259° (W) 00:12:14 145.980
QB50P2 30 Aug 00:04:26 00:08:16 31° 97° (E) 00:12:07 145.880/145.840
NANOSAT C BR1 30 Aug 00:07:18 00:11:09 32° 97° (E) 00:15:01 145.865
AUBIESAT-1 30 Aug 00:09:05 00:13:01 67° 105° (ESE) 00:16:37 437.475
BUGSAT 1 30 Aug 00:09:11 00:12:17 20° 94° (E) 00:15:30 437.445
M-CUBED/EXP-1 PRIME 30 Aug 00:12:05 00:16:07 89° 293° (WNW) 00:19:47 437.505
RS-15 30 Aug 00:13:08 00:21:57 24° 31° (NNE) 00:31:24 29.354- 29.394
TIGRISAT 30 Aug 00:13:25 00:18:00 71° 284° (WNW) 00:22:26 435.000
QB50P1 30 Aug 00:19:45 00:23:54 47° 99° (E) 00:28:02 145.935-145.965
50 SAT 30 Aug 00:20:58 00:24:26 28° 264° (W) 00:27:53 437.505
ANTELSAT 30 Aug 00:29:40 00:34:03 44° 287° (WNW) 00:38:17 437.575/2403.000
ESTCUBE 1 30 Aug 00:49:58 00:53:47 26° 264° (W) 00:57:33 437.505/2401.250
TISAT 1 30 Aug 01:00:27 01:04:31 52° 75° (ENE) 01:08:39 437.305
SWISSCUBE 30 Aug 01:13:08 01:15:25 14° 66° (ENE) 01:17:56 437.505
POLYITAN 1 30 Aug 01:20:17 01:24:09 32° 288° (WNW) 01:27:57 437.675
CUBEBUG 1 30 Aug 01:20:57 01:23:25 14° 269° (W) 01:25:41 437.445
BEESAT 3 30 Aug 01:21:04 01:25:05 69° 59° (ENE) 01:29:01 437.485
UNISAT 6 30 Aug 01:22:30 01:24:43 13° 294° (WNW) 01:26:41 437.425
SPROUT 30 Aug 01:23:14 01:27:19 44° 261° (W) 01:31:27 437.525
SO-50 30 Aug 01:23:49 01:27:33 24° 112° (ESE) 01:31:30 436.795
POPSAT HIP 1 30 Aug 01:23:53 01:27:40 30° 288° (WNW) 01:31:23 437.405
DUCHIFAT 1 30 Aug 01:26:27 01:30:11 29° 289° (WNW) 01:33:50 145.980
CUSAT 1 30 Aug 01:27:48 01:31:13 56° 283° (WNW) 01:35:46 437.405
BEESAT 2 30 Aug 01:29:43 01:33:45 63° 58° (ENE) 01:37:42 435.950
Cosmos 2504 30 Aug 01:38:47 01:46:04 35° 288° (WNW) 01:53:35 435.465 / 435.565
DANDE 30 Aug 01:39:42 01:42:47 71° 280° (W) 01:46:49 436.750
QB50P2 30 Aug 01:40:49 01:43:57 19° 291° (WNW) 01:46:56 145.880/145.840
NANOSAT C BR1 30 Aug 01:43:42 01:46:46 19° 291° (WNW) 01:49:42 145.865
BUGSAT 1 30 Aug 01:44:02 01:47:46 29° 288° (WNW) 01:51:25 437.445
ITUPSAT 1 30 Aug 01:48:32 01:52:36 29° 70° (ENE) 01:56:45 437.325
AIST 2 30 Aug 01:51:02 01:54:15 22° 50° (NE) 01:57:30 435.215
GONETS M04 30 Aug 01:57:03 01:58:17 11° 78° (ENE) 02:00:24
QB50P1 30 Aug 01:57:09 01:59:23 14° 293° (WNW) 02:01:24 145.935-145.965
Oscar 19 30 Aug 02:06:55 02:11:12 26° 95° (E) 02:15:34 437.125/150
BEESAT 30 Aug 02:22:27 02:27:12 69° 75° (ENE) 02:31:57 436.000
RS-15 30 Aug 02:25:02 02:36:58 75° 58° (ENE) 02:49:16 29.354- 29.394
Gurwin Techsat 1B 30 Aug 02:31:44 02:33:58 13° 89° (E) 02:36:33 435.225
KKS-1 30 Aug 02:34:43 02:36:45 13° 66° (ENE) 02:39:02 437.445
PCSat 30 Aug 02:36:31 02:41:43 52° 112° (ESE) 02:47:00 145.827
TISAT 1 30 Aug 02:39:34 02:40:40 11° 270° (W) 02:41:30 437.305
SWISSCUBE 30 Aug 02:48:09 02:52:51 57° 260° (W) 02:57:33 437.505
ITAMSAT 1 30 Aug 03:01:14 03:05:01 21° 93° (E) 03:08:59 435.822/435.867
SO-50 30 Aug 03:03:31 03:07:56 36° 308° (NW) 03:12:27 436.795
ITUPSAT 1 30 Aug 03:26:29 03:30:29 25° 265° (W) 03:34:23 437.325
AIST 2 30 Aug 03:29:09 03:32:52 31° 246° (WSW) 03:36:28 435.215
GONETS M04 30 Aug 03:45:15 03:53:51 73° 94° (E) 04:02:32
Oscar 19 30 Aug 03:45:57 03:50:35 32° 290° (WNW) 03:55:07 437.125/150
VERMONT LUNAR 30 Aug 03:50:34 03:52:21 15° 146° (SE) 03:54:11 437.305
STARS 30 Aug 03:55:21 03:59:42 63° 75° (ENE) 04:04:05 437.465
JAS-2 30 Aug 03:59:15 04:05:56 47° 96° (E) 04:11:53 435.910
BEESAT 30 Aug 04:04:56 04:05:35 10° 271° (W) 04:05:53 436.000
MOZHAYETS 4 30 Aug 04:06:53 04:10:01 19° 69° (ENE) 04:13:18
KKS-1 30 Aug 04:08:40 04:12:59 51° 260° (W) 04:17:21 437.445
Gurwin Techsat 1B 30 Aug 04:09:14 04:14:31 66° 286° (WNW) 04:19:46 435.225
Cosmos 2499 30 Aug 04:10:27 04:16:54 27° 84° (E) 04:23:55 435.465 / 435.565
PCSat 30 Aug 04:21:21 04:25:30 21° 310° (NW) 04:29:31 145.827
RS-15 30 Aug 04:38:53 04:48:40 29° 255° (WSW) 04:58:04 29.354- 29.394
ITAMSAT 1 30 Aug 04:39:52 04:44:43 40° 289° (WNW) 04:49:30 435.822/435.867
O/OREOS (USA 219) 30 Aug 04:59:13 05:01:31 14° 55° (NE) 05:04:00 437.305
HORYU 2 30 Aug 05:13:31 05:17:56 58° 101° (E) 05:22:18 437.375
AO-7 30 Aug 05:20:50 05:29:06 68° 104° (ESE) 05:37:20 29.400- 29.500
VERMONT LUNAR 30 Aug 05:25:31 05:28:31 90° 169° (S) 05:31:30 437.305
MOZHAYETS 4 30 Aug 05:42:41 05:47:00 38° 263° (W) 05:51:17
JAS-2 30 Aug 05:44:48 05:50:39 28° 295° (WNW) 05:55:49 435.910
GONETS M04 30 Aug 05:45:17 05:51:42 21° 294° (WNW) 05:57:44
CUBESAT XI-V 30 Aug 05:54:34 05:58:01 22° 70° (ENE) 06:01:34 437.345
Cosmos 2499 30 Aug 06:01:16 06:09:29 60° 282° (WNW) 06:18:10 435.465 / 435.565
STRAND 1 30 Aug 06:33:25 06:36:32 17° 66° (ENE) 06:39:52 437.568
O/OREOS (USA 219) 30 Aug 06:36:52 06:41:23 55° 253° (WSW) 06:45:51 437.305
CUTE-I 30 Aug 06:49:14 06:53:11 22° 93° (E) 06:57:17 437.470
HORYU 2 30 Aug 06:52:18 06:54:07 12° 294° (WNW) 06:55:41 437.375
VERMONT LUNAR 30 Aug 07:02:22 07:05:08 35° 355° (N) 07:07:54 437.305
PHONESAT 2.4 30 Aug 07:06:24 07:09:43 53° 154° (SSE) 07:13:03 2401.200-2431.200
PRISM 30 Aug 07:13:06 07:16:25 25° 71° (ENE) 07:19:48 437.425
AO-7 30 Aug 07:14:47 07:21:18 26° 301° (WNW) 07:27:32 29.400- 29.500
YUBILEINY 30 Aug 07:19:48 07:21:44 11° 58° (ENE) 07:24:30 435.215
CUBESAT XI-V 30 Aug 07:31:11 07:35:17 31° 264° (W) 07:39:22 437.345
Cubesat XI-IV 30 Aug 07:42:35 07:47:54 74° 101° (ESE) 07:53:14 437.490
Cosmos 2491 30 Aug 08:07:00 08:07:56 10° 78° (ENE) 08:09:46 435.465 / 435.565
STRAND 1 30 Aug 08:10:25 08:15:23 52° 260° (W) 08:20:21 437.568
BRITE-PL 30 Aug 08:14:41 08:19:27 30° 95° (E) 08:24:25 437.365/2234.400
CUTE-I 30 Aug 08:28:28 08:33:27 41° 289° (WNW) 08:38:23 437.470
VERMONT LUNAR 30 Aug 08:39:01 08:41:54 45° 12° (NNE) 08:44:47 437.305
HO-68 30 Aug 08:41:15 08:45:39 18° 90° (E) 08:50:24 435.675
PHONESAT 2.4 30 Aug 08:44:22 08:47:39 46° 350° (N) 08:50:57 2401.200-2431.200
PRISM 30 Aug 08:48:34 08:51:49 22° 265° (W) 08:54:57 437.425
AIST 1 30 Aug 08:52:21 08:56:30 56° 94° (E) 09:00:40
GOMX 1 30 Aug 08:53:21 08:58:28 41° 97° (E) 09:03:40 467.674
YUBILEINY 30 Aug 09:11:53 09:20:41 69° 80° (E) 09:29:27 435.215
CUTE 1.7 + AOD 2 30 Aug 09:14:39 09:17:56 22° 94° (E) 09:21:17 437.475
ISS 30 Aug 09:14:56 09:17:40 26° 132° (SE) 09:20:26 145.825
DOVE 4 30 Aug 09:16:23 09:21:24 41° 97° (E) 09:26:22 437.250
Cubesat XI-IV 30 Aug 09:24:56 09:27:27 13° 296° (WNW) 09:29:41 437.490
CANX-2 30 Aug 09:27:53 09:31:47 36° 97° (E) 09:35:40 2200.000
Cosmos 2504 30 Aug 09:39:47 09:41:45 11° 58° (ENE) 09:44:26 435.465 / 435.565
Oscar 11 30 Aug 09:50:04 09:51:37 12° 90° (E) 09:53:27 145.826/435.025
ANTELSAT 30 Aug 09:52:29 09:53:36 11° 65° (ENE) 09:55:02 437.575/2403.000
SEEDS 30 Aug 09:52:37 09:56:41 50° 99° (E) 10:00:45 437.485
BRITE-PL 30 Aug 09:52:59 09:57:55 34° 288° (WNW) 10:02:56 437.365/2234.400
Cosmos 2491 30 Aug 09:54:53 10:03:31 72° 94° (E) 10:12:12 435.465 / 435.565
SO-50 30 Aug 09:58:14 10:00:49 14° 42° (NE) 10:03:32 436.795
VERMONT LUNAR 30 Aug 10:15:29 10:18:19 40° 207° (SSW) 10:21:09 437.305
CINEMA 3 30 Aug 10:15:39 10:20:40 72° 101° (E) 10:25:32 145.822/145.860
COMPASS 1 30 Aug 10:17:35 10:21:45 80° 101° (ESE) 10:25:53 437.405
CUBEBUG 2 30 Aug 10:18:56 10:23:08 32° 96° (E) 10:27:15 437.445
PHONESAT 2.4 30 Aug 10:22:38 10:25:53 41° 7° (N) 10:29:08 2401.200-2431.200
CUSAT 1 30 Aug 10:23:48 10:28:01 16° 64° (ENE) 10:32:54 437.405
HO-68 30 Aug 10:26:55 10:34:07 74° 287° (WNW) 10:41:16 435.675
ZACube-1 30 Aug 10:27:34 10:31:02 22° 93° (E) 10:34:33 437.345
AAUSAT CUBESAT 2 30 Aug 10:29:27 10:33:36 88° 290° (WNW) 10:37:43 437.432
UWE-3 30 Aug 10:29:50 10:33:57 32° 96° (E) 10:37:59 435.000/436.395/437.385
GOMX 1 30 Aug 10:31:59 10:36:21 24° 291° (WNW) 10:40:36 467.674
FUNcube-1 30 Aug 10:33:40 10:37:21 25° 94° (E) 10:41:02 145.935
POLYITAN 1 30 Aug 10:37:48 10:38:42 11° 66° (ENE) 10:39:52 437.675
DANDE 30 Aug 10:38:31 10:41:58 14° 64° (ENE) 10:46:11 436.750
UNISAT 6 30 Aug 10:40:00 10:44:14 36° 72° (ENE) 10:48:34 437.425
POPSAT HIP 1 30 Aug 10:40:47 10:42:03 11° 66° (ENE) 10:43:31 437.405
DUCHIFAT 1 30 Aug 10:42:52 10:44:10 11° 66° (ENE) 10:45:41 145.980
CUTE 1.7 + AOD 2 30 Aug 10:50:17 10:53:49 25° 289° (WNW) 10:57:14 437.475
ISS 30 Aug 10:51:11 10:54:01 27° 327° (NNW) 10:56:50 145.825
AUBIESAT-1 30 Aug 10:52:37 10:57:16 60° 70° (ENE) 11:01:56 437.475
DOVE 4 30 Aug 10:54:43 10:58:52 23° 291° (WNW) 11:02:51 437.250
QB50P2 30 Aug 10:55:35 10:58:24 18° 69° (ENE) 11:01:22 145.880/145.840
M-CUBED/EXP-1 PRIME 30 Aug 10:55:59 11:00:46 77° 71° (ENE) 11:05:33 437.505
NANOSAT C BR1 30 Aug 10:58:03 11:00:52 18° 69° (ENE) 11:03:50 145.865
CANX-2 30 Aug 11:04:44 11:07:26 16° 291° (WNW) 11:09:58 2200.000
DELFI C3 30 Aug 11:06:33 11:10:32 65° 101° (E) 11:14:28 145.870
TIGRISAT 30 Aug 11:08:51 11:13:29 73° 76° (ENE) 11:18:13 435.000
QB50P1 30 Aug 11:10:15 11:13:41 25° 71° (ENE) 11:17:14 145.935-145.965
YUBILEINY 30 Aug 11:10:18 11:16:49 22° 277° (W) 11:22:53 435.215
DX 1 30 Aug 11:14:24 11:16:48 15° 92° (E) 11:19:25 434.975-435.025
Oscar 11 30 Aug 11:23:59 11:28:09 48° 286° (WNW) 11:32:17 145.826/435.025
ANTELSAT 30 Aug 11:25:11 11:29:49 71° 258° (WSW) 11:34:32 437.575/2403.000
HUMSAT D 30 Aug 11:27:07 11:31:05 39° 98° (E) 11:35:01 437.325/437.525
PCSat 30 Aug 11:27:25 11:31:49 25° 52° (NE) 11:36:18 145.827
Cosmos 2504 30 Aug 11:27:31 11:36:00 69° 80° (E) 11:43:58 435.465 / 435.565
AISAT 30 Aug 11:29:14 11:31:35 14° 91° (E) 11:34:10 437.250
UKube-1 30 Aug 11:29:17 11:32:24 20° 94° (E) 11:35:38 .
SEEDS 30 Aug 11:30:24 11:32:04 12° 293° (WNW) 11:33:31 437.485
SO-50 30 Aug 11:37:06 11:42:03 79° 240° (WSW) 11:46:50 436.795
Cosmos 2491 30 Aug 11:54:52 12:01:22 22° 294° (WNW) 12:07:28 435.465 / 435.565
CINEMA 3 30 Aug 11:55:13 11:57:15 12° 295° (WNW) 11:59:01 145.822/145.860
CUBEBUG 2 30 Aug 11:55:59 11:59:37 22° 291° (WNW) 12:03:04 437.445
VELOX 1 30 Aug 11:56:47 12:00:38 29° 96° (E) 12:04:32 145.980
50 SAT 30 Aug 11:58:12 12:01:45 35° 97° (E) 12:05:17 437.505
PHONESAT 2.4 30 Aug 12:00:31 12:03:55 74° 203° (SSW) 12:07:19 2401.200-2431.200
ZACube-1 30 Aug 12:03:30 12:07:25 29° 289° (WNW) 12:11:09 437.345
CUSAT 1 30 Aug 12:03:48 12:11:38 81° 81° (E) 12:19:54 437.405
UWE-3 30 Aug 12:06:46 12:10:16 21° 291° (WNW) 12:13:35 435.000/436.395/437.385
FUNcube-1 30 Aug 12:09:52 12:13:36 25° 290° (WNW) 12:17:10 145.935
POLYITAN 1 30 Aug 12:09:56 12:14:08 60° 260° (W) 12:18:23 437.675
POPSAT HIP 1 30 Aug 12:13:18 12:17:28 56° 260° (W) 12:21:40 437.405
DUCHIFAT 1 30 Aug 12:15:23 12:19:31 54° 260° (W) 12:23:41 145.980
UNISAT 6 30 Aug 12:17:41 12:21:08 20° 268° (W) 12:24:28 437.425
HO-68 30 Aug 12:17:48 12:20:50 13° 304° (WNW) 12:23:22 435.675
DANDE 30 Aug 12:18:32 12:26:08 75° 80° (E) 12:34:41 436.750
AUBIESAT-1 30 Aug 12:29:59 12:32:19 13° 265° (W) 12:34:23 437.475
QB50P2 30 Aug 12:30:11 12:34:04 33° 263° (W) 12:37:56 145.880/145.840
BUGSAT 1 30 Aug 12:30:50 12:34:49 58° 259° (W) 12:38:52 437.445
NANOSAT C BR1 30 Aug 12:32:38 12:36:28 33° 263° (W) 12:40:19 145.865
ESTCUBE 1 30 Aug 12:44:16 12:48:46 77° 101° (E) 12:53:17 437.505/2401.250
QB50P1 30 Aug 12:46:05 12:49:31 23° 266° (W) 12:52:52 145.935-145.965
DX 1 30 Aug 12:49:08 12:53:17 41° 287° (WNW) 12:57:23 434.975-435.025
TISAT 1 30 Aug 12:50:51 12:50:52 10° 89° (E) 12:51:12 437.305
HUMSAT D 30 Aug 13:03:57 13:06:30 15° 292° (WNW) 13:08:53 437.325/437.525
AISAT 30 Aug 13:04:09 13:08:26 44° 287° (WNW) 13:12:41 437.250
UKube-1 30 Aug 13:04:44 13:08:35 31° 289° (WNW) 13:12:22 .
CUBEBUG 1 30 Aug 13:09:56 13:14:19 65° 285° (WNW) 13:18:42 437.445
PCSat 30 Aug 13:10:19 13:15:25 42° 249° (WSW) 13:20:28 145.827
SPROUT 30 Aug 13:12:20 13:16:21 36° 97° (E) 13:20:23 437.525
Oscar 19 30 Aug 13:21:13 13:25:37 30° 70° (ENE) 13:30:08 437.125/150
Cosmos 2504 30 Aug 13:21:20 13:27:27 22° 278° (W) 13:32:57 435.465 / 435.565
VELOX 1 30 Aug 13:33:30 13:37:03 23° 290° (WNW) 13:40:29 145.980
50 SAT 30 Aug 13:33:52 13:36:00 14° 291° (WNW) 13:37:57 437.505
PHONESAT 2.4 30 Aug 13:39:34 13:41:27 14° 216° (SW) 13:43:14 2401.200-2431.200
CUSAT 1 30 Aug 13:48:09 13:53:38 20° 274° (W) 13:58:50 437.405
Gurwin Techsat 1B 30 Aug 13:50:03 13:53:22 18° 66° (ENE) 13:56:53 435.225
JUGNU 30 Aug 13:52:01 13:53:17 11° 168° (SSE) 13:54:38 437.505
GONETS M04 30 Aug 13:59:16 14:06:46 32° 71° (ENE) 14:14:30
DANDE 30 Aug 14:03:08 14:08:54 22° 272° (W) 14:14:40 436.750
JAS-2 30 Aug 14:08:32 14:13:33 20° 61° (ENE) 14:19:00 435.910
ITAMSAT 1 30 Aug 14:16:44 14:20:52 25° 68° (ENE) 14:25:07 435.822/435.867
